Location: Asheville, NC
(35.6000°N, 82.5500°W)
Time: 01:28:31
(UTC-05:00)

Vanguard 2 - Pass Details

Date: 13 February 2018
Orbit: 553 x 2939 km, 32.9° (Epoch: 23 February)

Event Time Altitude Azimuth Distance (km) Brightness Sun altitude
Rises 22:12:42 0° 264° (W) 3,470 11.4 -49.1°
Enters shadow 22:13:56 - 263° (W) 2,962 11.0 -49.4°
Reaches altitude 10° 22:15:38 10° 261° (W) 2,269 - -49.7°
Maximum altitude 22:20:30 62° 181° (S) 676 - -50.6°
Drops below altitude 10° 22:24:25 10° 100° (E) 1,823 - -51.3°
Sets 22:26:33 0° 96° (E) 2,716 - -51.7°
